IU3OVK-13 Weather Reports


Display with metric or nautical units.
time (UTC)temp
F
wind
direction
speed
MPH
gust
MPH
rain 1hr
in
rain 24hr
in
rain mn
in
humidity
%
barometer
mb
20260906082803 102 0.0 0.0 0.00 0.00 0.00 75 994.2
20260906081743 104 0.0 0.0 0.00 0.00 0.00 74 986.2
20260906080723 103 0.0 0.0 0.00 0.00 0.00 77 997.4
20260906075702 104 0.0 0.0 0.00 0.00 0.00 80 999.7
20260906073622 99 0.0 0.0 0.00 0.00 0.00 85 1004.9
20260906072602 92 0.0 0.0 0.00 0.00 0.00 91 1014.4
20260906071542 97 0.0 0.0 0.00 0.00 0.00 91 1007.4
20260906070521 92 0.0 0.0 0.00 0.00 0.00 99 1014.1
20260906064441 84 0.0 0.0 0.00 0.00 0.00 99 1017.4
20260906063421 91 0.0 0.0 0.00 0.00 0.00 99 1013.6
20260906062401 91 0.0 0.0 0.00 0.00 0.00 99 1015.3
20260906055258 66 0.0 0.0 0.00 0.00 0.00 99 1015.4
20260906054238 65 0.0 0.0 0.00 0.00 0.00 99 1015.3
20260906045057 65 0.0 0.0 0.00 0.00 0.00 99 1014.5
20260906044037 64 0.0 0.0 0.00 0.00 0.00 99 1014.7
20260906043017 64 0.0 0.0 0.00 0.00 0.00 99 1014.8
20260906041957 65 0.0 0.0 0.00 0.00 0.00 99 1014.6
20260906040936 66 0.0 0.0 0.00 0.00 0.00 99 1014.2
20260906035916 66 0.0 0.0 0.00 0.00 0.00 99 1013.9
20260906034856 65 0.0 0.0 0.00 0.00 0.00 99 1014.1
20260906033836 65 0.0 0.0 0.00 0.00 0.00 99 1013.9
20260906031755 66 0.0 0.0 0.00 0.00 0.00 99 1014.0
20260906030735 67 0.0 0.0 0.00 0.00 0.00 99 1013.6
20260906025715 66 0.0 0.0 0.00 0.00 0.00 99 1013.4
20260906024655 65 0.0 0.0 0.00 0.00 0.00 99 1013.6
20260906022614 67 0.0 0.0 0.00 0.00 0.00 99 1013.3
20260906021555 67 0.0 0.0 0.00 0.00 0.00 99 1013.1
20260906020534 66 0.0 0.0 0.00 0.00 0.00 99 1013.3
20260906015514 67 0.0 0.0 0.00 0.00 0.00 99 1013.1
20260906013433 67 0.0 0.0 0.00 0.00 0.00 99 1013.2
20260905204332 75 0.0 0.0 0.00 0.00 0.00 99 1012.2
20260905203312 75 0.0 0.0 0.00 0.00 0.00 99 1012.4
20260905202252 76 0.0 0.0 0.00 0.00 0.00 99 1011.8
20260905201232 75 0.0 0.0 0.00 0.00 0.00 99 1012.6
20260905200212 77 0.0 0.0 0.00 0.00 0.00 99 1012.0
20260905195151 76 0.0 0.0 0.00 0.00 0.00 99 1011.8
20260905194131 76 0.0 0.0 0.00 0.00 0.00 99 1012.3
20260905193111 76 0.0 0.0 0.00 0.00 0.00 99 1012.2
20260905192051 78 0.0 0.0 0.00 0.00 0.00 99 1012.2
20260905191031 78 0.0 0.0 0.00 0.00 0.00 99 1011.8
20260905190010 78 0.0 0.0 0.00 0.00 0.00 99 1012.0
20260905184950 79 0.0 0.0 0.00 0.00 0.00 99 1012.0
20260905183930 79 0.0 0.0 0.00 0.00 0.00 99 1011.8
20260905182910 80 0.0 0.0 0.00 0.00 0.00 99 1011.5
20260905181850 80 0.0 0.0 0.00 0.00 0.00 99 1011.6
20260905180829 81 0.0 0.0 0.00 0.00 0.00 99 1010.8
20260905175901 82 0.0 0.0 0.00 0.00 0.00 99 1010.9
20260905175809 82 0.0 0.0 0.00 0.00 0.00 99 1010.9
20260905174749 82 0.0 0.0 0.00 0.00 0.00 99 1010.5
20260905173729 82 0.0 0.0 0.00 0.00 0.00 99 1010.4
20260905172709 83 0.0 0.0 0.00 0.00 0.00 99 1010.1
20260905171648 84 0.0 0.0 0.00 0.00 0.00 99 1009.8
20260905170628 85 0.0 0.0 0.00 0.00 0.00 99 1009.7
20260905165608 85 0.0 0.0 0.00 0.00 0.00 99 1009.7
20260905162507 87 0.0 0.0 0.00 0.00 0.00 99 1008.9
20260905161447 87 0.0 0.0 0.00 0.00 0.00 99 1009.0
20260905160427 87 0.0 0.0 0.00 0.00 0.00 99 1009.1
20260905155406 87 0.0 0.0 0.00 0.00 0.00 99 1008.9
20260905154346 87 0.0 0.0 0.00 0.00 0.00 99 1008.5
20260905153326 87 0.0 0.0 0.00 0.00 0.00 99 1008.6
20260905151246 87 0.0 0.0 0.00 0.00 0.00 99 1008.5
20260905150225 89 0.0 0.0 0.00 0.00 0.00 99 1007.7
20260905145205 88 0.0 0.0 0.00 0.00 0.00 99 1008.2
20260905144145 89 0.0 0.0 0.00 0.00 0.00 99 1007.8
20260905143125 89 0.0 0.0 0.00 0.00 0.00 99 1007.9
20260905142105 89 0.0 0.0 0.00 0.00 0.00 99 1008.2
20260905141152 88 0.0 0.0 0.00 0.00 0.00 99 1008.8
20260905141044 88 0.0 0.0 0.00 0.00 0.00 99 1008.8
20260905132924 89 0.0 0.0 0.00 0.00 0.00 99 1009.4
20260905131903 88 0.0 0.0 0.00 0.00 0.00 99 1009.1
20260905130843 89 0.0 0.0 0.00 0.00 0.00 99 1009.2
20260905125823 91 0.0 0.0 0.00 0.00 0.00 99 1008.9
20260905124803 90 0.0 0.0 0.00 0.00 0.00 99 1008.9
20260905122722 91 0.0 0.0 0.00 0.00 0.00 99 1009.8
20260905121702 92 0.0 0.0 0.00 0.00 0.00 99 1008.1
20260905120642 88 0.0 0.0 0.00 0.00 0.00 99 1010.4
20260905115622 92 0.0 0.0 0.00 0.00 0.00 99 1009.8
20260905114602 96 0.0 0.0 0.00 0.00 0.00 99 1007.3
20260905113541 93 0.0 0.0 0.00 0.00 0.00 99 1009.5
20260905112521 94 0.0 0.0 0.00 0.00 0.00 96 1008.8
20260905110441 104 0.0 0.0 0.00 0.00 0.00 79 990.5
20260905105421 104 0.0 0.0 0.00 0.00 0.00 79 989.8
20260905103338 101 0.0 0.0 0.00 0.00 0.00 88 1007.5
20260905102318 101 0.0 0.0 0.00 0.00 0.00 88 1007.5
20260905101256 113 0.0 0.0 0.00 0.00 0.00 78 988.7
20260905100236 105 0.0 0.0 0.00 0.00 0.00 80 995.1
20260905095216 109 0.0 0.0 0.00 0.00 0.00 80 991.0
20260905094155 109 0.0 0.0 0.00 0.00 0.00 80 991.0
20260905093133 94 0.0 0.0 0.00 0.00 0.00 99 1010.5
20260905092114 95 0.0 0.0 0.00 0.00 0.00 99 1008.5
20260905091053 86 0.0 0.0 0.00 0.00 0.00 99 1011.0
20260905090033 88 0.0 0.0 0.00 0.00 0.00 99 1010.2
20260905083952 83 0.0 0.0 0.00 0.00 0.00 99 1011.4